2025-007J

Last updated on Tue Jan 14 2025 00:02:05 GMT+0000 (Coordinated Universal Time)

1 62583U 25007J 25013.45889160 -.00000210 00000+0 00000+0 0 9992 2 62583 54.9837 126.8710 0010811 296.3758 157.0513 14.75278423 47
UTC large
Height (km)
Speed (km/s)
/
Latitude / Longitude
Inclination (degrees)
Orbital Period (minutes)
Azimuth
Elevation
Range (km)
Doppler Factor

Next 0 passes for location: London (51.5072 / 0.1276)

Sorry there are no passes over London.